Location: Unspecified
(0.0000°N, 0.0000°E)
Time: 22:41:04
(UTC-05:00)

Daily predictions for brighter satellites

Satellite Brightness Start Highest point End
(mag) Time Altitude Azimuth Time Altitude Azimuth Time Altitude Azimuth
Cosmos 2322 Rocket 2.3 13:18:29 10° N 13:24:04 60° ENE 13:29:36 10° SSE
Cosmos 2297 Rocket 2.8 13:22:46 10° S 13:27:49 34° ESE 13:32:52 10° NE
MONITOR-E 4.1 13:24:48 10° SSE 13:27:55 84° ENE 13:31:01 10° N
Ariane H10 4.1 13:25:03 10° WNW 13:28:18 61° N 13:40:30 10° E
Cosmos 2058 Rocket 4.4 13:25:49 10° NNW 13:30:05 44° W 13:34:22 10° SSW
Nadezhda 3 Rocket 4.2 13:25:42 10° S 13:31:53 53° E 13:37:58 10° NNE
Cosmos 1953 4.4 13:31:36 10° E 13:32:01 10° E 13:32:27 10° E
ARIANE 5 R/B 2.5 13:31:03 10° W 13:34:43 73° S 13:39:15 10° E
NOSS 3-1 (C) 4.5 13:26:54 10° NNW 13:35:21 77° WSW 13:43:48 10° SSE
METEOR-M 4.3 13:33:17 10° SSE 13:38:30 56° ENE 13:43:42 10° N
GPS 2-12 Rocket1 3.1 13:33:49 10° WSW 13:38:39 83° SSE 13:43:28 10° ENE
Cosmos 407 Rocket 3.4 13:36:21 10° S 13:41:31 75° ESE 13:46:36 10° NNE
Cosmos 389 Rocket 3.6 13:40:41 10° NNE 13:43:43 26° E 13:46:37 11° SE
Meteor 2-21 4.5 13:39:44 10° N 13:45:50 68° E 13:51:59 10° S
Meteor 2-5 Rocket 4.4 13:40:30 10° SSE 13:45:53 36° E 13:51:10 10° NNE
Cosmos 1331 Rocket 4.0 13:42:14 10° NNW 13:47:25 86° WSW 13:52:39 10° S
Meteor 1-22 Rocket 4.4 13:41:30 10° N 13:47:32 89° E 13:53:40 10° S
ATLAS 2A CENTAUR R/B 4.2 13:41:11 10° SW 13:47:49 66° SE 14:34:23 10° ENE
Meteor 2-8 Rocket 4.4 13:41:49 10° S 13:47:58 78° E 13:54:04 10° N
ATLAS 5 CENTAUR R/B 1.8 13:45:22 10° S 13:49:47 47° ESE 13:54:06 10° NE
Cosmos 2218 Rocket 4.0 13:44:04 10° N 13:50:26 80° E 13:56:50 10° S
SL-8 Rocket 4.2 13:45:21 10° N 13:51:37 79° W 13:57:53 10° S
Cosmos 1954 Rocket 4.2 13:49:44 10° S 13:54:47 47° ESE 13:59:46 10° NNE
Meteor 2-21 Rocket 4.4 13:55:10 10° N 14:01:18 75° E 14:07:28 10° S
Cosmos 1544 3.0 13:58:57 10° N 14:02:37 72° E 14:06:21 10° S
SJ-6B 3.5 14:01:03 20° SE 14:03:17 35° ENE 14:06:50 10° NNE
USA 234 3.3 13:57:10 10° NE 14:03:42 89° NW 14:10:16 10° SW
Ariane H10 3.2 14:01:30 10° WSW 14:03:44 20° S 14:04:15 19° SSE
DASH 3.4 14:02:30 10° W 14:05:02 33° SSW 14:07:56 17° SE
Cosmos 1271 Rocket 4.0 14:06:00 10° NNW 14:09:44 41° W 14:13:27 10° SSW
Cosmos 1378 3.2 14:06:09 10° S 14:09:48 55° E 14:13:28 10° NNE
BLOCK DM-SL R/B 3.9 14:03:03 10° W 14:10:52 49° N 14:13:57 15° ENE
Cosmos 2227 Rocket 2.9 14:05:30 10° SSW 14:11:02 56° WNW 14:16:33 10° N
Meteor 1-24 Rocket 4.3 14:06:53 10° SSE 14:12:25 38° E 14:17:51 10° NNE
Cosmos 2366 rocket 4.3 14:07:39 10° N 14:13:51 70° W 14:20:08 10° S
ALOS 2.2 14:09:47 11° SSE 14:14:19 79° ENE 14:18:58 10° N
FREGAT/IRIS 2.5 14:13:52 26° S 14:15:27 88° W 14:18:29 10° NNW
Cosmos 2084 3.3 14:12:11 10° SSW 14:16:42 86° ESE 14:20:52 10° NNE
Cosmos 1302 Rocket 4.1 14:13:47 10° NNW 14:19:02 77° W 14:23:51 12° S
CRYOSAT 2 4.2 14:14:58 10° S 14:19:48 80° E 14:24:39 10° N
ATLAS 2AS CENTAUR R/B 3.6 14:16:01 10° N 14:21:59 27° ENE 14:23:41 25° E
ARIANE 5 DEB (SYLDA) 3.5 14:20:48 10° W 14:23:52 70° S 14:28:19 26° E
Iridium 2 3.7 14:22:10 10° NNE 14:25:53 54° E 14:26:11 52° ESE
HJ-1C 3.2 14:28:19 70° E 14:28:25 71° E 14:31:45 10° N
Cosmos 1805 4.4 14:29:47 10° NNW 14:33:30 43° W 14:36:38 14° SSW
Spot 2 Rocket 4.2 14:34:29 34° ENE 14:34:29 34° ENE 14:38:42 10° NNE
Cosmos 1758 3.8 14:32:31 10° NNW 14:36:29 60° W 14:38:36 26° SSW
Cosmos 2360 Rocket 2.3 14:31:00 10° NNW 14:36:34 75° WSW 14:39:51 26° S
COSMOS 2428 3.3 14:31:29 10° N 14:36:40 37° ENE 14:36:50 37° ENE
SL-16 R/B 4.4 14:32:35 10° WNW 14:36:44 21° WSW 14:40:55 10° SSW
BLOCK-DM UPPERSTAGE 3.3 14:33:16 10° W 14:40:12 88° N 14:41:01 56° E
Maqsat-H 3.8 14:35:01 10° W 14:40:49 81° S 14:53:44 29° ESE
Helios 1B rocket 2.7 14:39:00 10° NNE 14:42:15 52° NE 14:42:15 52° NE
Delta 142 3.8 14:38:12 10° WNW 14:43:56 67° SSW 14:44:41 57° SSE
Molniya-1 4.1 14:45:10 45° NE 14:45:10 45° NE 14:49:36 10° NNE
Cosmos 1470 3.5 14:44:38 10° N 14:47:19 42° N 14:47:19 42° N
ASTEX 1 4.0 14:45:16 17° S 14:48:49 53° W 14:53:33 10° NNW
Cosmos 1733 4.0 14:47:59 10° N 14:50:41 44° N 14:50:41 44° N
USA 215 4.4 14:50:54 18° S 14:55:00 35° SW 15:00:51 10° WNW
Cosmos 2219 Rocket 3.5 14:56:12 10° NNE 14:59:05 25° NE 14:59:05 25° NE
Cosmos 2333 Rocket 4.0 14:57:44 10° NNE 14:59:36 18° NE 14:59:36 18° NE
Cosmos 2239 Rocket 4.4 14:56:14 10° N 15:02:33 86° E 15:03:50 60° S
Ariane H10 3.1 14:47:42 10° W 15:03:04 83° N 15:03:28 75° ENE
Cosmos-2242 4.3 14:59:41 10° N 15:02:07 34° N 15:02:07 34° N
Meteor 2-15 4.4 15:00:56 28° SSW 15:04:20 77° W 15:10:22 10° N
Cosmos 1339 Rocket 4.4 15:04:11 47° S 15:06:15 89° W 15:12:38 10° N
GEOS 3 Rocket 3.9 15:15:05 60° W 15:15:05 60° W 15:19:41 10° NW
Centaur AC-42 2.9 15:13:17 10° WNW 15:16:03 38° W 15:16:03 38° W
Resurs 01 Rocket 3.4 15:26:45 30° WNW 15:26:45 30° WNW 15:29:32 10° NW
ATLAS 2AS CENTAUR R/B 4.2 16:06:32 10° NW 16:11:10 28° W 16:11:10 28° W
VEP-3 3.8 22:01:09 40° ENE 22:01:09 40° ENE 22:06:36 10° ESE
ARIANE 5 R/B 3.7 22:08:38 39° E 22:08:38 39° E 22:18:17 10° E
Hubble Space Telescope 4.0 22:23:33 12° NE 22:23:33 12° NE 22:23:50 10° NE
ADEOS II 3.9 22:28:53 10° N 22:30:52 24° N 22:30:52 24° N
Ariane H10 4.3 22:34:26 71° NNE 22:34:26 71° NNE 22:53:55 10° E
Cosmos 1745 Rocket 4.3 22:38:00 64° ESE 22:38:20 65° E 22:44:36 10° NNE
Ariane 42L Rocket 3.6 22:39:11 71° ENE 22:39:11 71° ENE 22:53:23 10° E
Centaur AC-112 4.2 22:43:10 48° NNW 22:43:46 49° NNW 23:02:56 10° NE
GPS 2-15 Rocket1 4.4 22:47:36 39° E 22:47:36 39° E 22:50:39 10° ENE
Cosmos 1455 Rocket 4.0 23:03:17 40° SE 23:04:05 45° E 23:08:14 10° NNE
Okean-O 3.6 23:04:40 10° NNE 23:08:52 43° ESE 23:10:27 30° SSE
Cosmos 1624 Rocket 4.5 23:09:49 34° SSE 23:11:50 56° ESE 23:16:55 10° NNE
Intelsat 5-1 Rocket 4.1 23:10:40 40° W 23:14:12 66° NNW 23:37:51 10° ENE
CZ-3 R/B 3.1 22:41:26 10° WNW 23:16:08 76° SW 23:23:29 10° SE
Okean O Rocket 4.0 23:15:15 10° NNW 23:15:36 12° NNW 23:15:36 12° NNW
Atlas Centaur 2 4.4 23:20:50 15° S 23:20:50 15° S 23:23:19 10° SSE
Meteor 1-31 Rocket 3.1 23:15:59 10° N 23:18:59 55° N 23:18:59 55° N
ATLAS 2A CENTAUR R/B 4.1 23:22:50 13° NNE 23:22:50 13° NNE 23:23:29 10° NNE
Cosmos 1743 4.0 23:20:08 22° SSE 23:22:10 40° E 23:25:48 10° NNE
IUS-18 SRM-1 4.5 23:25:56 24° S 23:25:57 24° S 23:33:33 10° SE
Sakura Rocket 3.6 23:28:16 36° SSE 23:28:16 36° SSE 23:31:22 10° SE
Cosmos 1975 3.0 23:30:02 52° WNW 23:30:02 52° WNW 23:33:33 10° N
Okean 2 3.8 23:27:23 10° N 23:31:30 63° E 23:35:37 10° SSE
ARIANE 5 R/B 2.3 23:33:24 20° ESE 23:33:24 20° ESE 23:34:31 10° ESE
CZ-4B R/B 4.3 23:27:47 10° NNW 23:31:54 26° WNW 23:31:54 26° WNW
CZ-4B R/B 4.2 23:28:44 10° N 23:33:06 55° WNW 23:33:51 48° WSW
Cosmos 2056 Rocket 3.4 23:33:51 28° SSW 23:36:44 79° WNW 23:41:59 10° N
Landsat 4 3.8 23:38:16 52° WSW 23:38:17 52° WSW 23:41:59 10° NNW
Meteor 2-4 Rocket 3.9 23:33:25 10° NNW 23:38:30 42° W 23:40:29 30° SW
ATLAS CENTAUR R/B 3.1 23:38:00 10° S 23:42:14 34° ESE 23:46:17 10° NE
GPS 2-17 Rocket1 3.6 23:41:49 33° SSW 23:43:36 50° SSE 23:48:13 10° E
Cosmos 405 3.5 23:42:32 14° S 23:45:31 58° E 23:48:59 10° NNE
Cosmos 2278 3.7 23:42:19 23° SSW 23:45:56 69° WNW 23:51:36 10° N
USA 81 3.9 23:41:54 10° N 23:47:09 78° W 23:52:24 10° S
ARIANE 5 DEB (SYLDA) 2.3 23:47:58 37° ESE 23:47:58 37° ESE 23:49:31 10° E
ISS -1.1 23:47:48 10° SSE 23:49:46 15° SE 23:51:43 10° E
Meteor 1-23 Rocket 4.5 23:45:36 10° NNW 23:51:04 47° W 23:56:29 10° SSW
Cosmos 1709 Rocket 4.0 23:45:51 10° SSW 23:52:07 60° W 23:58:17 10° N
Lacrosse 5 rocket 1.2 23:51:10 36° WSW 23:52:16 52° WNW 23:55:51 10° NNE
Cosmos 1025 Rocket 3.3 23:48:37 10° NNW 23:52:46 44° W 23:56:31 12° SSW
Cosmos 1892 Rocket 4.0 23:49:33 10° N 23:53:56 65° E 23:58:22 10° SSE
Cosmos 1980 Rocket 4.1 23:49:13 10° SSE 23:54:03 29° ESE 23:58:52 10° NE
Ariane 3 Deb 2.3 23:53:49 22° W 23:57:08 85° S 23:59:46 10° E
